Miscellaneous Local Product
Issued by NWS Hastings, NE

Home | Current Version | Previous Version | Graphics & Text | Print | Product List | Glossary On
Versions: 1 2 3 4 5 6 7 8 9 10 11 12 13 14 15 16 17 18 19 20 21 22 23 24 25 26 27 28 29 30 31 32 33 34 35 36 37 38 39 40 41 42 43 44 45 46 47 48 49 50
000
AXUS43 KGID 031802
MISGRI

GID CWA HOURLY WEATHER ROUNDUP
NATIONAL WEATHER SERVICE HASTINGS NE
100 PM CDT THU SEP 03 2015

NOTE: "FAIR" INDICATES FEW OR NO CLOUDS BELOW 12,000 FEET WITH NO
SIGNIFICANT WEATHER AND/OR OBSTRUCTIONS TO VISIBILITY.

...SOUTH CENTRAL NEBRASKA...

CITY           SKY/WX    TMP DP  RH WIND       PRES   REMARKS
GRAND ISLAND   SUNNY     89  63  41 SE12      29.83F HX  90
HASTINGS       MOSUNNY   90  62  39 S12G18    29.83F HX  90
KEARNEY        MOSUNNY   88  63  42 S13       29.82F
ORD            SUNNY     90  62  39 SE12      29.80F HX  90
YORK           SUNNY     88  66  48 S13       29.84F HX  90
AURORA         SUNNY     89  65  45 SE9       29.83F HX  90
LEXINGTON      PTSUNNY   84  64  50 SE9       29.83S
HOLDREGE       PTSUNNY   86  60  41 S10       29.84S
HEBRON         SUNNY     88  61  40 S14G20    29.84F

...NEBRASKA PANHANDLE...

CITY           SKY/WX    TMP DP  RH WIND       PRES   REMARKS
CHADRON        MOSUNNY   94  48  20 E3        29.82F HX  90
ALLIANCE       PTSUNNY   89  46  22 CALM      29.89F
SCOTTSBLUFF    MOSUNNY   88  48  25 W7        29.90F
SIDNEY         PTSUNNY   89  44  20 N3        29.94F

...WESTERN AND NORTH CENTRAL NEBRASKA...

CITY           SKY/WX    TMP DP  RH WIND       PRES   REMARKS
VALENTINE      SUNNY     98  44  15 SE13      29.81F HX  94
AINSWORTH      SUNNY     96  54  24 E10       29.82F HX  93
ONEILL         SUNNY     88  66  48 SE8       29.82F HX  90
BROKEN BOW     MOSUNNY   88  64  44 SE8       29.82F
IMPERIAL       MOSUNNY   91  59  33 E5        29.85F HX  90
NORTH PLATTE   PTSUNNY   86  64  47 SE7       29.82F
MCCOOK         PTSUNNY   91  59  33 SE9       29.81F HX  90

...EASTERN NEBRASKA...

CITY           SKY/WX    TMP DP  RH WIND       PRES   REMARKS
NORFOLK        SUNNY     85  69  58 S13       29.82F
SO SIOUX CITY  SUNNY     85  66  53 SE13      29.82F
TEKAMAH        SUNNY     86  71  60 S13       29.84F HX  91
COLUMBUS       SUNNY     86  66  51 S8        29.82F
ALBION         SUNNY     84  67  57 SE9       29.83S
OMAHA EPPLEY   MOSUNNY   88  69  53 S14       29.85F HX  92
OFFUTT AFB     SUNNY     88  69  54 SE13      29.85F HX  92
MILLARD        SUNNY     86  71  60 S7        29.85F HX  91
LINCOLN        SUNNY     90  68  48 S12       29.84F HX  94
NEBRASKA CITY  SUNNY     89  60  38 S16       29.87F
BEATRICE       SUNNY     89  66  46 S17       29.85F HX  92
FALLS CITY     SUNNY     91  69  48 S14       29.88F HX  96

...NORTHERN KANSAS...

CITY           SKY/WX    TMP DP  RH WIND       PRES   REMARKS
GOODLAND       PTSUNNY   90  48  23 S3        29.87F
HILL CITY      MOSUNNY   95  58  28 S12G21    29.82F HX  94
NORTON         CLEAR     91  54  27 SE10G16   29.81F
PHILLIPSBURG   SUNNY     95  57  28 SE13      29.82F HX  94
SMITH CENTER   SUNNY     91  57  31 S16G22    29.82F HX  90
HAYS           MOSUNNY   97  59  28 S21G29    29.82F HX  96
RUSSELL        SUNNY     95  59  30 S21       29.82F HX  94
CONCORDIA      SUNNY     90  65  43 S17G25    29.85F HX  92
SALINA         SUNNY     95  63  34 S24G33    29.85F HX  96
TOPEKA         SUNNY     89  67  47 S14       29.90F HX  92



USA.gov is the U.S. government's official web portal to all federal, state and local government web resources and services.